Location: Winthrop
(48.4780°N, 120.1850°W)
Time: 00:59:35
(UTC-07:00)

A-11 Canister half - Pass Details

Date: 07 June 2023
Orbit: 1515 x 1684 km, 47.2° (Epoch: 29 September)

Event Time Altitude Azimuth Distance (km) Brightness Sun altitude
Exits shadow 00:03:27 14° 130° (SE) 3,501 10.4 -17.7°
Maximum altitude 00:04:13 14° 125° (SE) 3,486 10.4 -17.7°
Drops below altitude 10° 00:08:49 10° 96° (E) 3,810 10.9 -17.9°
Sets 00:13:46 0° 74° (ENE) 4,764 11.6 -18.1°
